Orbital Elements at Epoch 2459000.5 (2020-May-31.0) TDB
Reference: JPL 20 (heliocentric ecliptic J2000)
Element | Value | Uncertainty (1-sigma) | Units |
e | .1444613578125997 | 4.5509e-08 | |
a | 3.1237588702178 | 1.7927e-08 | au |
q | 2.672496422346984 | 1.4256e-07 | au |
i | 4.996360554691837 | 5.3169e-06 | deg |
node | 6.181603693806885 | 4.441e-05 | deg |
peri | 44.87989362258212 | 4.7121e-05 | deg |
M | 161.4936663766301 | 1.5772e-05 | deg |
tp | 2458095.876898834381 (2017-Dec-08.37689883) | 8.5164e-05 | TDB |
period | 2016.576400340799 5.52 | 1.736e-05 4.753e-08 | d yr |
n | .1785203872955968 | 1.5368e-09 | deg/d |
Q | 3.575021318088616 | 2.0517e-08 | au |
|
| | Orbit Determination Parameters
Additional Information
|